When you browse on this site, cookies collect data to enhance your experience and personalize the content and advertising you see.
Visit our Privacy Policy to learn more. By continuing to use the site, you agree to this use of cookies and data.
EN

Hourly Weather Godynice

Today, 21 September, Monday

Time Temperature Precipitation Wind Pressure Humidity
00:00 +12°C° 0 mm 3 mps 748 mmHg 71%
01:00 +13°C° 0 mm 2 mps 748 mmHg 75%
02:00 +12°C° 0 mm 2 mps 748 mmHg 78%
03:00 +12°C° 0 mm 2 mps 748 mmHg 81%
04:00 +12°C° 0 mm 2 mps 748 mmHg 84%
05:00 +12°C° 0 mm 2 mps 748 mmHg 82%
06:00 +13°C° 0 mm 2 mps 748 mmHg 80%
07:00 +13°C° 0 mm 2 mps 748 mmHg 75%
08:00 +15°C° 0 mm 2 mps 748 mmHg 67%
09:00 +18°C° 0 mm 2 mps 748 mmHg 60%
10:00 +20°C° 0 mm 2 mps 748 mmHg 52%
11:00 +21°C° 0 mm 2 mps 748 mmHg 48%
12:00 +23°C° 0 mm 2 mps 748 mmHg 43%
13:00 +24°C° 0 mm 2 mps 748 mmHg 38%
14:00 +24°C° 0 mm 2 mps 747 mmHg 39%
15:00 +25°C° 0 mm 1 mps 747 mmHg 39%
16:00 +25°C° 0 mm 1 mps 747 mmHg 40%
17:00 +23°C° 0 mm 1 mps 747 mmHg 44%
18:00 +20°C° 0 mm 2 mps 747 mmHg 48%
19:00 +18°C° 0 mm 2 mps 746 mmHg 52%
20:00 +18°C° 0 mm 2 mps 746 mmHg 54%
21:00 +17°C° 0 mm 2 mps 747 mmHg 55%
22:00 +17°C° 0 mm 2 mps 747 mmHg 57%
23:00 +17°C° 0 mm 2 mps 746 mmHg 57%

Tomorrow, 22 September, Tuesday

Time Temperature Precipitation Wind Pressure Humidity
00:00 +16°C° 0 mm 2 mps 746 mmHg 58%
01:00 +16°C° 0 mm 2 mps 746 mmHg 59%
02:00 +16°C° 0 mm 2 mps 746 mmHg 58%
03:00 +16°C° 0 mm 3 mps 746 mmHg 58%
04:00 +16°C° 0 mm 3 mps 745 mmHg 58%
05:00 +16°C° 0 mm 3 mps 745 mmHg 59%
06:00 +16°C° 0 mm 3 mps 745 mmHg 61%
07:00 +17°C° 0 mm 3 mps 745 mmHg 62%
08:00 +19°C° 0 mm 4 mps 745 mmHg 55%
09:00 +21°C° 0 mm 5 mps 745 mmHg 47%
10:00 +25°C° 0 mm 5 mps 745 mmHg 40%
11:00 +26°C° 0 mm 6 mps 745 mmHg 38%
12:00 +27°C° 0 mm 6 mps 744 mmHg 35%
13:00 +27°C° 0 mm 6 mps 744 mmHg 33%
14:00 +27°C° 0 mm 5 mps 744 mmHg 36%
15:00 +27°C° 0 mm 4 mps 743 mmHg 39%
16:00 +26°C° 0 mm 4 mps 743 mmHg 41%
17:00 +25°C° 0 mm 3 mps 743 mmHg 45%
18:00 +22°C° 0 mm 3 mps 742 mmHg 48%
19:00 +20°C° 0 mm 3 mps 742 mmHg 52%
20:00 +20°C° 0 mm 3 mps 742 mmHg 53%
21:00 +19°C° 0 mm 3 mps 742 mmHg 54%
22:00 +19°C° 0 mm 3 mps 742 mmHg 55%
23:00 +18°C° 0 mm 3 mps 742 mmHg 55%

Day after tomorrow, 23 September, Wednesday

Time Temperature Precipitation Wind Pressure Humidity
00:00 +18°C° 0 mm 3 mps 741 mmHg 55%
01:00 +18°C° 0 mm 3 mps 741 mmHg 55%
02:00 +17°C° 0 mm 3 mps 741 mmHg 55%
03:00 +17°C° 0 mm 3 mps 740 mmHg 55%
04:00 +17°C° 0 mm 3 mps 740 mmHg 55%
05:00 +17°C° 0 mm 3 mps 740 mmHg 55%
06:00 +18°C° 0 mm 4 mps 740 mmHg 55%
07:00 +18°C° 0 mm 4 mps 740 mmHg 54%
08:00 +20°C° 0 mm 4 mps 740 mmHg 50%
09:00 +22°C° 0 mm 5 mps 740 mmHg 46%
10:00 +26°C° 0 mm 5 mps 739 mmHg 42%
11:00 +26°C° 0 mm 5 mps 739 mmHg 42%
12:00 +27°C° 0 mm 5 mps 739 mmHg 42%
13:00 +28°C° 0 mm 5 mps 739 mmHg 42%
14:00 +27°C° 0 mm 5 mps 739 mmHg 45%
15:00 +27°C° 0 mm 4 mps 739 mmHg 47%
16:00 +26°C° 0 mm 4 mps 738 mmHg 50%
17:00 +25°C° 0 mm 3 mps 738 mmHg 55%
18:00 +22°C° 0 mm 3 mps 738 mmHg 60%
19:00 +20°C° 0 mm 2 mps 738 mmHg 65%
20:00 +20°C° 0 mm 2 mps 739 mmHg 68%
21:00 +19°C° 0 mm 2 mps 739 mmHg 70%
22:00 +19°C° 0 mm 2 mps 739 mmHg 73%
23:00 +19°C° 0 mm 2 mps 739 mmHg 75%

24 September, Thursday

Time Temperature Precipitation Wind Pressure Humidity
00:00 +18°C° 0 mm 3 mps 739 mmHg 77%
01:00 +18°C° 0 mm 3 mps 739 mmHg 79%
02:00 +18°C° 0 mm 3 mps 739 mmHg 81%
03:00 +17°C° 0 mm 2 mps 739 mmHg 83%
04:00 +17°C° 0 mm 2 mps 739 mmHg 86%
05:00 +17°C° 0.1 mm 2 mps 739 mmHg 85%
06:00 +17°C° 0.1 mm 2 mps 739 mmHg 84%
07:00 +17°C° 0.1 mm 2 mps 740 mmHg 83%
08:00 +19°C° 0.1 mm 2 mps 740 mmHg 75%
09:00 +20°C° 0.1 mm 2 mps 740 mmHg 68%
10:00 +22°C° 0.1 mm 3 mps 740 mmHg 61%
11:00 +24°C° 0 mm 3 mps 740 mmHg 56%
12:00 +25°C° 0 mm 3 mps 740 mmHg 51%
13:00 +26°C° 0 mm 3 mps 740 mmHg 47%
14:00 +26°C° 0 mm 3 mps 740 mmHg 48%
15:00 +26°C° 0 mm 3 mps 740 mmHg 49%
16:00 +26°C° 0 mm 3 mps 740 mmHg 50%
17:00 +24°C° 0 mm 3 mps 740 mmHg 56%
18:00 +23°C° 0 mm 2 mps 740 mmHg 62%
19:00 +20°C° 0 mm 2 mps 740 mmHg 67%
20:00 +20°C° 0 mm 2 mps 740 mmHg 68%
21:00 +19°C° 0 mm 2 mps 741 mmHg 70%
22:00 +19°C° 0 mm 2 mps 741 mmHg 71%
23:00 +18°C° 0 mm 3 mps 740 mmHg 73%

25 September, Friday

Time Temperature Precipitation Wind Pressure Humidity
00:00 +18°C° 0 mm 3 mps 740 mmHg 76%
01:00 +17°C° 0 mm 3 mps 739 mmHg 78%
02:00 +17°C° 0 mm 3 mps 739 mmHg 79%
03:00 +17°C° 0 mm 3 mps 739 mmHg 80%
04:00 +16°C° 0 mm 3 mps 738 mmHg 82%
05:00 +17°C° 0 mm 4 mps 738 mmHg 79%
06:00 +16°C° 0 mm 5 mps 737 mmHg 76%
07:00 +17°C° 0 mm 5 mps 736 mmHg 73%
08:00 +20°C° 0 mm 6 mps 736 mmHg 67%
09:00 +21°C° 0 mm 6 mps 735 mmHg 61%
10:00 +23°C° 0 mm 6 mps 735 mmHg 55%
11:00 +23°C° 0 mm 7 mps 734 mmHg 55%
12:00 +23°C° 0 mm 7 mps 734 mmHg 55%
13:00 +24°C° 0 mm 7 mps 733 mmHg 55%
14:00 +23°C° 0 mm 6 mps 733 mmHg 56%
15:00 +23°C° 0 mm 5 mps 732 mmHg 58%
16:00 +22°C° 0 mm 5 mps 732 mmHg 59%
17:00 +22°C° 0 mm 6 mps 732 mmHg 60%
18:00 +21°C° 0 mm 7 mps 732 mmHg 60%
19:00 +21°C° 0 mm 8 mps 732 mmHg 60%
20:00 +20°C° 0.6 mm 8 mps 732 mmHg 69%
21:00 +17°C° 0.6 mm 8 mps 732 mmHg 78%
22:00 +15°C° 0.6 mm 7 mps 732 mmHg 86%
23:00 +13°C° 0.4 mm 8 mps 733 mmHg 85%

26 September, Saturday

Time Temperature Precipitation Wind Pressure Humidity
00:00 +13°C° 0.4 mm 8 mps 733 mmHg 85%
01:00 +12°C° 0.4 mm 8 mps 733 mmHg 84%
02:00 +12°C° 0.1 mm 7 mps 734 mmHg 84%
03:00 +11°C° 0.1 mm 6 mps 734 mmHg 84%
04:00 +12°C° 0.1 mm 5 mps 735 mmHg 84%
05:00 +12°C° 0 mm 4 mps 736 mmHg 84%
06:00 +12°C° 0 mm 4 mps 736 mmHg 83%
07:00 +12°C° 0 mm 3 mps 737 mmHg 82%
08:00 +12°C° 0 mm 3 mps 737 mmHg 79%
09:00 +12°C° 0 mm 3 mps 738 mmHg 76%
10:00 +14°C° 0 mm 2 mps 738 mmHg 72%
11:00 +14°C° 0 mm 2 mps 738 mmHg 70%
12:00 +14°C° 0 mm 2 mps 738 mmHg 68%
13:00 +15°C° 0 mm 2 mps 738 mmHg 66%
14:00 +15°C° 0 mm 2 mps 738 mmHg 66%
15:00 +14°C° 0 mm 3 mps 738 mmHg 67%
16:00 +14°C° 0 mm 3 mps 737 mmHg 67%
17:00 +13°C° 0.8 mm 4 mps 737 mmHg 72%
18:00 +13°C° 0.8 mm 4 mps 737 mmHg 78%
19:00 +12°C° 0.8 mm 5 mps 736 mmHg 84%
20:00 +11°C° 2.6 mm 6 mps 736 mmHg 87%
21:00 +11°C° 2.6 mm 6 mps 735 mmHg 90%
22:00 +11°C° 2.6 mm 7 mps 734 mmHg 93%
23:00 +13°C° 2.6 mm 6 mps 734 mmHg 94%
Show more